When you browse on this site, cookies collect data to enhance your experience and personalize the content and advertising you see.
Visit our Privacy Policy to learn more. By continuing to use the site, you agree to this use of cookies and data.
  • In Hungary
  • List of Countries
  • For 7 days
  • Water Temperature
  • Satellite Maps
  • Weather Map
  • News
  • Weather Widgets
  • user-avatar
    Login

    Hourly Weather Potiivka

    Today, 16 July, Tuesday

    Time Temperature Precipitation Wind Pressure Humidity
    00:00 +14°C° 0 mm 1 mps 742 mmHg 90%
    01:00 +13°C° 0 mm 1 mps 742 mmHg 90%
    02:00 +13°C° 0 mm 2 mps 742 mmHg 90%
    03:00 +13°C° 0 mm 2 mps 742 mmHg 91%
    04:00 +13°C° 0 mm 2 mps 742 mmHg 92%
    05:00 +13°C° 0 mm 2 mps 742 mmHg 93%
    06:00 +15°C° 0 mm 2 mps 742 mmHg 88%
    07:00 +16°C° 0 mm 3 mps 742 mmHg 83%
    08:00 +18°C° 0 mm 3 mps 742 mmHg 78%
    09:00 +20°C° 0.1 mm 3 mps 742 mmHg 72%
    10:00 +21°C° 0.1 mm 3 mps 742 mmHg 66%
    11:00 +22°C° 0.1 mm 3 mps 742 mmHg 60%
    12:00 +22°C° 0.1 mm 3 mps 742 mmHg 59%
    13:00 +24°C° 0.1 mm 3 mps 742 mmHg 57%
    14:00 +24°C° 0.1 mm 3 mps 741 mmHg 55%
    15:00 +24°C° 0.2 mm 3 mps 741 mmHg 57%
    16:00 +24°C° 0.2 mm 3 mps 741 mmHg 58%
    17:00 +24°C° 0.2 mm 3 mps 741 mmHg 60%
    18:00 +21°C° 0.1 mm 3 mps 741 mmHg 65%
    19:00 +19°C° 0.1 mm 2 mps 741 mmHg 70%
    20:00 +18°C° 0.1 mm 2 mps 741 mmHg 75%
    21:00 +17°C° 0 mm 2 mps 741 mmHg 77%
    22:00 +16°C° 0 mm 2 mps 741 mmHg 80%
    23:00 +15°C° 0 mm 2 mps 741 mmHg 82%

    Tomorrow, 17 July, Wednesday

    Time Temperature Precipitation Wind Pressure Humidity
    00:00 +15°C° 0 mm 2 mps 741 mmHg 84%
    01:00 +15°C° 0 mm 2 mps 741 mmHg 85%
    02:00 +14°C° 0 mm 2 mps 741 mmHg 87%
    03:00 +13°C° 0 mm 3 mps 741 mmHg 89%
    04:00 +13°C° 0 mm 3 mps 741 mmHg 91%
    05:00 +13°C° 0 mm 3 mps 741 mmHg 93%
    06:00 +14°C° 0 mm 3 mps 741 mmHg 88%
    07:00 +16°C° 0 mm 3 mps 741 mmHg 83%
    08:00 +17°C° 0 mm 3 mps 741 mmHg 78%
    09:00 +18°C° 0 mm 3 mps 741 mmHg 72%
    10:00 +19°C° 0 mm 4 mps 741 mmHg 66%
    11:00 +21°C° 0 mm 4 mps 741 mmHg 60%
    12:00 +21°C° 0 mm 4 mps 741 mmHg 59%
    13:00 +22°C° 0 mm 4 mps 741 mmHg 58%
    14:00 +22°C° 0 mm 4 mps 741 mmHg 57%
    15:00 +22°C° 0.1 mm 4 mps 741 mmHg 60%
    16:00 +22°C° 0.1 mm 5 mps 741 mmHg 63%
    17:00 +21°C° 0.1 mm 5 mps 741 mmHg 65%
    18:00 +20°C° 0.1 mm 4 mps 741 mmHg 71%
    19:00 +18°C° 0.1 mm 4 mps 741 mmHg 78%
    20:00 +17°C° 0.1 mm 3 mps 741 mmHg 84%
    21:00 +16°C° 0 mm 3 mps 741 mmHg 86%
    22:00 +14°C° 0 mm 3 mps 741 mmHg 88%
    23:00 +13°C° 0 mm 3 mps 741 mmHg 90%

    Day after tomorrow, 18 July, Thursday

    Time Temperature Precipitation Wind Pressure Humidity
    00:00 +13°C° 0 mm 3 mps 741 mmHg 91%
    01:00 +12°C° 0 mm 3 mps 741 mmHg 92%
    02:00 +12°C° 0 mm 3 mps 741 mmHg 94%
    03:00 +12°C° 0 mm 3 mps 741 mmHg 94%
    04:00 +11°C° 0 mm 4 mps 741 mmHg 94%
    05:00 +11°C° 0 mm 4 mps 741 mmHg 94%
    06:00 +13°C° 0 mm 4 mps 741 mmHg 88%
    07:00 +15°C° 0 mm 4 mps 742 mmHg 82%
    08:00 +17°C° 0 mm 4 mps 742 mmHg 76%
    09:00 +17°C° 0 mm 5 mps 742 mmHg 71%
    10:00 +20°C° 0 mm 5 mps 742 mmHg 66%
    11:00 +21°C° 0 mm 5 mps 742 mmHg 60%
    12:00 +21°C° 0.1 mm 5 mps 742 mmHg 60%
    13:00 +22°C° 0.1 mm 5 mps 742 mmHg 59%
    14:00 +22°C° 0.1 mm 5 mps 742 mmHg 58%
    15:00 +22°C° 0.1 mm 5 mps 742 mmHg 59%
    16:00 +22°C° 0.1 mm 5 mps 743 mmHg 59%
    17:00 +22°C° 0.1 mm 5 mps 743 mmHg 60%
    18:00 +20°C° 0 mm 4 mps 743 mmHg 66%
    19:00 +19°C° 0 mm 3 mps 743 mmHg 72%
    20:00 +17°C° 0 mm 3 mps 743 mmHg 78%
    21:00 +16°C° 0 mm 3 mps 744 mmHg 82%
    22:00 +16°C° 0 mm 3 mps 744 mmHg 86%
    23:00 +14°C° 0 mm 3 mps 744 mmHg 91%

    19 July, Friday

    Time Temperature Precipitation Wind Pressure Humidity
    00:00 +14°C° 0 mm 3 mps 744 mmHg 92%
    01:00 +13°C° 0 mm 3 mps 744 mmHg 92%
    02:00 +13°C° 0 mm 3 mps 744 mmHg 93%
    03:00 +13°C° 0 mm 3 mps 744 mmHg 93%
    04:00 +13°C° 0 mm 3 mps 744 mmHg 93%
    05:00 +13°C° 0 mm 3 mps 745 mmHg 93%
    06:00 +16°C° 0 mm 3 mps 745 mmHg 87%
    07:00 +17°C° 0 mm 4 mps 745 mmHg 82%
    08:00 +19°C° 0 mm 4 mps 745 mmHg 76%
    09:00 +21°C° 0 mm 4 mps 746 mmHg 71%
    10:00 +22°C° 0 mm 4 mps 746 mmHg 66%
    11:00 +23°C° 0 mm 4 mps 746 mmHg 61%
    12:00 +25°C° 0.4 mm 4 mps 746 mmHg 60%
    13:00 +25°C° 0.4 mm 4 mps 746 mmHg 59%
    14:00 +25°C° 0.4 mm 4 mps 746 mmHg 59%
    15:00 +25°C° 0 mm 3 mps 746 mmHg 58%
    16:00 +25°C° 0 mm 3 mps 746 mmHg 57%
    17:00 +25°C° 0 mm 2 mps 746 mmHg 56%
    18:00 +24°C° 0 mm 2 mps 746 mmHg 62%
    19:00 +22°C° 0 mm 1 mps 746 mmHg 67%
    20:00 +20°C° 0 mm 1 mps 746 mmHg 73%
    21:00 +20°C° 0 mm 1 mps 747 mmHg 75%
    22:00 +19°C° 0 mm 1 mps 747 mmHg 76%
    23:00 +18°C° 0 mm 1 mps 747 mmHg 78%

    20 July, Saturday

    Time Temperature Precipitation Wind Pressure Humidity
    00:00 +18°C° 0 mm 1 mps 747 mmHg 79%
    01:00 +18°C° 0 mm 1 mps 747 mmHg 81%
    02:00 +16°C° 0 mm 1 mps 747 mmHg 83%
    03:00 +16°C° 0 mm 1 mps 747 mmHg 83%
    04:00 +16°C° 0 mm 1 mps 747 mmHg 84%
    05:00 +16°C° 0 mm 1 mps 747 mmHg 84%
    06:00 +19°C° 0 mm 1 mps 748 mmHg 78%
    07:00 +21°C° 0 mm 1 mps 748 mmHg 71%
    08:00 +23°C° 0 mm 1 mps 748 mmHg 64%
    09:00 +25°C° 0 mm 1 mps 748 mmHg 59%
    10:00 +26°C° 0 mm 1 mps 748 mmHg 54%
    11:00 +27°C° 0 mm 2 mps 748 mmHg 49%
    12:00 +27°C° 0.1 mm 2 mps 748 mmHg 51%
    13:00 +27°C° 0.1 mm 3 mps 748 mmHg 54%
    14:00 +27°C° 0.1 mm 4 mps 748 mmHg 56%
    15:00 +26°C° 0.1 mm 3 mps 748 mmHg 58%
    16:00 +26°C° 0.1 mm 2 mps 748 mmHg 59%
    17:00 +26°C° 0.1 mm 2 mps 748 mmHg 61%
    18:00 +24°C° 0.2 mm 2 mps 748 mmHg 67%
    19:00 +21°C° 0.2 mm 3 mps 748 mmHg 74%
    20:00 +19°C° 0.2 mm 4 mps 748 mmHg 81%
    21:00 +19°C° 0 mm 3 mps 748 mmHg 81%
    22:00 +18°C° 0 mm 3 mps 748 mmHg 82%
    23:00 +18°C° 0 mm 2 mps 748 mmHg 82%

    21 July, Sunday

    Time Temperature Precipitation Wind Pressure Humidity
    00:00 +17°C° 0 mm 2 mps 748 mmHg 86%
    01:00 +18°C° 0 mm 1 mps 748 mmHg 89%
    02:00 +16°C° 0 mm 1 mps 748 mmHg 93%
    03:00 +15°C° 0 mm 0 mps 748 mmHg 93%
    04:00 +15°C° 0 mm 0 mps 748 mmHg 94%
    05:00 +15°C° 0 mm 0 mps 748 mmHg 94%
    06:00 +17°C° 0 mm 0 mps 748 mmHg 88%
    07:00 +21°C° 0 mm 1 mps 748 mmHg 82%
    08:00 +23°C° 0 mm 1 mps 748 mmHg 76%
    09:00 +24°C° 0 mm 1 mps 748 mmHg 70%
    10:00 +26°C° 0 mm 1 mps 749 mmHg 64%
    11:00 +27°C° 0 mm 1 mps 749 mmHg 58%
    12:00 +28°C° 0 mm 1 mps 749 mmHg 55%
    13:00 +29°C° 0 mm 1 mps 749 mmHg 52%
    14:00 +29°C° 0 mm 1 mps 749 mmHg 48%
    15:00 +29°C° 0 mm 2 mps 749 mmHg 51%
    16:00 +29°C° 0 mm 2 mps 749 mmHg 54%
    17:00 +28°C° 0 mm 2 mps 749 mmHg 57%
    18:00 +26°C° 0 mm 2 mps 749 mmHg 64%
    19:00 +24°C° 0 mm 2 mps 749 mmHg 71%
    20:00 +23°C° 0 mm 2 mps 749 mmHg 77%
    21:00 +22°C° 0 mm 1 mps 749 mmHg 79%
    22:00 +21°C° 0 mm 1 mps 749 mmHg 80%
    23:00 +18°C° 0 mm 0 mps 749 mmHg 82%
    Show more